Location: Putah Creek Observatory
(38.7021°N, 122.3865°W)
Time: 07:23:10
(UTC-07:00)

DMSP B5D2-2 - Pass Details

Date: 27 May 2018
Orbit: 791 x 806 km, 98.4° (Epoch: 18 September)

Event Time Altitude Azimuth Distance (km) Brightness Sun altitude
Rises 22:00:27 0° 19° (NNE) 3,328 7.7 -15.7°
Reaches altitude 10° 22:02:53 10° 25° (NNE) 2,392 6.8 -16.0°
Maximum altitude 22:08:00 48° 99° (E) 1,043 4.3 -16.7°
Enters shadow 22:10:39 26° 160° (SSE) 1,532 5.0 -17.1°
